Location: Caltech
(34.1382°N, 118.1253°W)
Time: 12:39:53
(UTC-08:00)

NOAA 19 - Visible Passes

Search period start: 20 February 2017 00:00
Search period end: 02 March 2017 00:00
Orbit: 842 x 861 km, 99.1° (Epoch: 20 February)

Date Brightness Start Highest point End Pass type
(mag) Time Alt. Az. Time Alt. Az. Time Alt. Az.
23 Feb 7.6 04:07:29 10° N 04:07:34 10° N 04:07:34 10° N visible
24 Feb 7.6 03:55:49 10° N 03:56:07 11° N 03:56:07 11° N visible
25 Feb 7.6 03:44:12 10° N 03:44:40 12° N 03:44:40 12° N visible
26 Feb 7.6 03:32:39 10° N 03:33:12 13° N 03:33:12 13° N visible
27 Feb 7.6 03:21:09 10° NNE 03:21:45 13° NNE 03:21:45 13° NNE visible
28 Feb 7.7 03:09:43 10° NNE 03:10:18 13° NNE 03:10:18 13° NNE visible
01 Mar 7.8 02:58:20 10° NNE 02:58:51 13° NNE 02:58:51 13° NNE visible
01 Mar 7.4 04:40:41 10° NNW 04:40:54 11° NNW 04:40:54 11° NNW visible
